DELTA 1 DEB, 10654

Orbit data source: Space-Track

DELTA 1 DEB, 10654 is space debris in SSO originally from a launch on Thu, 29 Jul 1976 UTC launched from the Air Force Western Test Range (AFWTR). Debris objects in space refer to the collection of defunct objects orbiting the Earth. Examples of debris include non-operational satellites, rocket bodies, and fragments generated from explosions, collisions, or faulty payload assembly.

Loading next visibility...
Identifier
10654, 1976-077Q
Orbit
SSO
Country
Flag of USUS
Related business
Manufacturer
Unknown
Mission
Spacecraft
Bus & Motor
Unknown
Mass
Unknown
Launch date (UTC)
1976-07-29 (49 years ago)
Launch vehicle
Unknown
Launch site
Air Force Western Test Range (AFWTR)
Object type
Payload
Rocket body
Debris
Shape & HBR
Unknown shape, 0.2 m
Radar Cross Section
Small (<0.1 m²)

Expand to show TLE details & history
Last TLE update: 14 hours ago

TLE from 14 hours ago
0 DELTA 1 DEB
1 10654U 76077Q   25292.26651284  .00001421  00000-0  48234-2 0  9998
2 10654 102.4810 209.8854 0194562 348.0303 164.0910 12.95113023311764
Epoch: 2025-10-19T06:23Z
TLE epoch observation values (Epoch: 2025-10-19T06:23:46.709Z)
Latitude
26.62124°
Longitude
-87.70648°
Altitude
1,427.814 km
Speed
7.082 km/s
True Right ascension
02h 24m 53s
True Declination
26° 29' 44"
Sunlit
Object was in full shadow at epoch
Visualization orbit readout
Latitude
Unknown
Longitude
Unknown
Altitude
Unknown
Speed
Unknown
Apparent Right ascension
Unknown
Apparent Declination
Unknown
Sunlit
N/A
Visualization observer readout
Local Sidereal Time
15:46:28
Azimuth
Unknown
Elevation
Unknown
Doppler factor
Unknown
Orbital elements
Apogee altitude
1,427.805 km
Perigee altitude
1,129.854 km
Semi-major axis
7,656.967 km
Eccentricity
0.01946
Inclination
102.481°
RAAN
209.8854°
Arg. of periapsis
348.0303°
True anomaly
164.68814°
Mean anomaly
164.091°
Eccentric anomaly
164.39095°
Mean motion
3.23935 °/min
Orbital period
111.13 mins
BSTAR
0.0048234
Loading maneuver chart data...
Computing Atmospheric mass density...
Loading historical data...
Loading historical data...
Loading historical data...
Loading historical data...
Loading historical data...
Loading historical data...
Loading historical data...

Documentation

Showing up to 5 results
|